MOLNIYA 1-87

Last updated on Mon Jun 26 2023 01:03:02 GMT+0100 (British Summer Time)

1 22949U 93079A 23175.71917981 -.00000322 00000+0 00000+0 0 9991 2 22949 64.4730 48.8339 6953029 281.7191 13.4912 2.02881340216838
UTC large
Height (km)
Speed (km/s)
/
Latitude / Longitude
Inclination (degrees)
Orbital Period (minutes)
Azimuth
Elevation
Range (km)
Doppler Factor

Next 0 passes for location: London (51.5072 / 0.1276)

Sorry there are no passes over London.